Total_Precipitation_Accumulation
0.00 0.00 0.00 0.00 0.00 0.00 0.01 0.02 0.04 0.03 0.03 0.04 0.07 0.15 0.25 0.36 0.50 0.70 0.74 0.66 0.69 0.80 1.06 1.27 1.41 1.36 1.54 1.71 1.92 2.06 2.27 2.69 3.15 3.15 2.88 2.70 2.42 2.21 2.03 1.91 1.85 1.88 1.92 2.10
0.00 0.00 0.00 0.00 0.01 0.01 0.01 0.03 0.04 0.03 0.04 0.05 0.12 0.24 0.38 0.51 0.71 0.75 0.60 0.55 0.70 0.92 1.23 1.46 1.58 1.57 1.65 1.96 2.37 2.59 2.74 3.15 3.44 3.36 3.23 3.05 2.86 2.51 2.38 2.26 2.12 1.93 1.85 1.98
0.01 0.01 0.00 0.00 0.01 0.01 0.02 0.03 0.03 0.04 0.05 0.09 0.16 0.39 0.60 0.72 0.83 0.75 0.65 0.68 0.77 0.87 1.14 1.33 1.30 1.34 1.45 1.60 1.84 2.15 2.56 3.01 3.18 3.28 3.24 3.14 3.07 2.66 2.50 2.36 2.20 2.01 1.89 1.86
0.01 0.01 0.01 0.01 0.01 0.01 0.02 0.02 0.02 0.03 0.05 0.11 0.17 0.43 0.74 1.05 1.10 0.84 0.70 0.71 0.78 1.06 1.24 1.12 1.01 1.10 1.19 1.19 1.45 1.72 2.10 2.47 2.72 2.87 2.91 2.96 2.87 2.68 2.63 2.46 2.13 1.91 1.79 1.79
0.01 0.02 0.02 0.03 0.02 0.02 0.02 0.02 0.03 0.03 0.03 0.06 0.11 0.34 0.77 1.24 1.29 0.85 0.71 0.74 0.90 1.11 1.05 0.93 0.94 1.06 1.10 1.14 1.37 1.60 1.83 2.13 2.38 2.49 2.49 2.50 2.41 2.34 2.30 2.16 1.93 1.77 1.66 1.60
0.02 0.03 0.03 0.03 0.02 0.03 0.03 0.05 0.06 0.07 0.10 0.20 0.24 0.39 0.82 1.18 1.04 0.74 0.70 0.64 0.74 0.90 0.91 0.93 0.98 1.04 1.11 1.29 1.47 1.69 1.90 2.15 2.28 2.13 1.98 1.97 1.98 2.01 1.94 1.81 1.66 1.51 1.42 1.35
0.11 0.08 0.05 0.04 0.05 0.05 0.06 0.09 0.20 0.34 0.45 0.56 0.48 0.59 1.11 0.97 0.72 0.63 0.65 0.64 0.63 0.71 0.76 0.80 0.98 1.20 1.24 1.22 1.24 1.43 1.72 2.03 2.06 1.89 1.72 1.64 1.63 1.69 1.68 1.59 1.50 1.44 1.33 1.24
0.25 0.21 0.09 0.07 0.09 0.09 0.09 0.13 0.29 0.36 0.33 0.46 0.47 0.84 1.23 0.90 0.63 0.53 0.55 0.58 0.52 0.46 0.39 0.40 0.49 0.60 0.58 0.58 0.59 0.65 0.79 1.01 1.13 1.11 1.10 1.11 1.14 1.21 1.27 1.37 1.33 1.33 1.28 1.17
0.13 0.11 0.07 0.09 0.13 0.14 0.19 0.21 0.20 0.31 0.31 0.40 0.51 0.74 0.80 0.59 0.53 0.49 0.50 0.48 0.42 0.35 0.29 0.28 0.29 0.32 0.37 0.38 0.42 0.51 0.58 0.66 0.72 0.72 0.71 0.73 0.79 0.89 0.96 1.03 1.07 1.10 1.11 1.05
0.06 0.06 0.07 0.06 0.09 0.13 0.15 0.22 0.35 0.51 0.52 0.44 0.45 0.79 0.99 0.90 0.81 0.67 0.61 0.55 0.44 0.34 0.29 0.27 0.28 0.32 0.40 0.48 0.57 0.63 0.62 0.58 0.55 0.55 0.56 0.54 0.60 0.66 0.72 0.75 0.78 0.79 0.80 0.84
0.04 0.04 0.07 0.13 0.16 0.15 0.15 0.21 0.35 0.48 0.50 0.52 0.54 0.67 0.60 0.66 0.76 0.83 0.83 0.69 0.48 0.35 0.30 0.29 0.28 0.31 0.36 0.45 0.52 0.59 0.60 0.57 0.55 0.53 0.53 0.53 0.52 0.52 0.55 0.61 0.62 0.65 0.66 0.68
0.02 0.04 0.07 0.13 0.11 0.07 0.12 0.20 0.33 0.50 0.54 0.55 0.59 0.62 0.36 0.38 0.50 0.59 0.58 0.46 0.33 0.27 0.25 0.24 0.23 0.25 0.28 0.35 0.42 0.46 0.48 0.52 0.52 0.47 0.48 0.50 0.48 0.45 0.47 0.48 0.49 0.52 0.56 0.58
0.02 0.04 0.10 0.24 0.24 0.12 0.15 0.15 0.22 0.33 0.41 0.45 0.57 0.63 0.37 0.37 0.44 0.47 0.45 0.39 0.30 0.27 0.26 0.25 0.23 0.24 0.26 0.32 0.39 0.43 0.44 0.48 0.50 0.47 0.47 0.44 0.47 0.48 0.45 0.40 0.38 0.39 0.43 0.49
0.02 0.02 0.05 0.11 0.11 0.08 0.11 0.13 0.16 0.23 0.35 0.32 0.30 0.41 0.41 0.40 0.42 0.42 0.39 0.32 0.26 0.23 0.23 0.22 0.24 0.26 0.27 0.27 0.29 0.34 0.42 0.50 0.46 0.43 0.42 0.41 0.40 0.40 0.42 0.40 0.37 0.35 0.37 0.42
0.02 0.02 0.03 0.04 0.05 0.06 0.10 0.11 0.13 0.17 0.19 0.27 0.25 0.34 0.42 0.38 0.34 0.31 0.30 0.27 0.22 0.20 0.18 0.17 0.17 0.18 0.19 0.22 0.25 0.29 0.30 0.38 0.44 0.45 0.42 0.41 0.40 0.37 0.34 0.33 0.30 0.30 0.30 0.30
0.02 0.02 0.03 0.08 0.13 0.14 0.16 0.17 0.15 0.14 0.14 0.17 0.22 0.30 0.28 0.25 0.25 0.26 0.26 0.24 0.22 0.17 0.14 0.12 0.11 0.11 0.12 0.14 0.18 0.21 0.22 0.27 0.33 0.36 0.34 0.37 0.38 0.37 0.36 0.31 0.27 0.26 0.27 0.29
0.02 0.02 0.02 0.08 0.19 0.20 0.27 0.18 0.16 0.16 0.16 0.23 0.37 0.39 0.29 0.27 0.24 0.21 0.18 0.16 0.12 0.09 0.08 0.07 0.06 0.06 0.07 0.07 0.09 0.16 0.20 0.21 0.25 0.28 0.31 0.33 0.37 0.40 0.38 0.29 0.26 0.25 0.26 0.29
0.03 0.02 0.03 0.08 0.18 0.29 0.25 0.09 0.06 0.09 0.08 0.10 0.17 0.18 0.18 0.20 0.17 0.13 0.10 0.08 0.06 0.04 0.03 0.03 0.02 0.02 0.03 0.04 0.06 0.13 0.20 0.23 0.26 0.31 0.36 0.38 0.38 0.41 0.41 0.35 0.32 0.32 0.32 0.32
0.03 0.02 0.03 0.06 0.10 0.19 0.11 0.06 0.07 0.09 0.10 0.05 0.08 0.09 0.08 0.07 0.07 0.08 0.04 0.02 0.01 0.01 0.01 0.01 0.01 0.02 0.03 0.05 0.09 0.15 0.20 0.26 0.32 0.37 0.42 0.43 0.43 0.44 0.44 0.43 0.43 0.45 0.46 0.40
0.04 0.03 0.04 0.04 0.10 0.17 0.10 0.06 0.07 0.09 0.20 0.11 0.07 0.05 0.03 0.02 0.06 0.08 0.02 0.00 0.00 0.00 0.00 0.01 0.01 0.03 0.06 0.09 0.14 0.22 0.25 0.32 0.36 0.37 0.38 0.38 0.43 0.49 0.51 0.53 0.55 0.56 0.58 0.51
0.05 0.04 0.05 0.06 0.10 0.09 0.04 0.05 0.06 0.15 0.24 0.05 0.01 0.01 0.01 0.02 0.05 0.03 0.01 0.00 0.00 0.00 0.01 0.02 0.03 0.08 0.14 0.13 0.19 0.25 0.28 0.33 0.35 0.38 0.39 0.41 0.44 0.50 0.54 0.62 0.68 0.72 0.70 0.66
0.05 0.06 0.07 0.10 0.14 0.12 0.03 0.02 0.03 0.06 0.04 0.02 0.02 0.02 0.02 0.01 0.01 0.01 0.01 0.01 0.01 0.02 0.02 0.03 0.06 0.12 0.18 0.20 0.27 0.31 0.32 0.34 0.38 0.43 0.43 0.43 0.48 0.42 0.43 0.63 0.73 0.79 0.81 0.75
0.03 0.04 0.04 0.05 0.07 0.03 0.01 0.02 0.02 0.02 0.03 0.03 0.02 0.02 0.01 0.01 0.01 0.01 0.01 0.02 0.03 0.03 0.04 0.06 0.10 0.14 0.17 0.23 0.36 0.46 0.46 0.46 0.49 0.54 0.56 0.57 0.55 0.56 0.61 0.71 0.77 0.80 0.82 0.81
0.01 0.02 0.03 0.04 0.03 0.02 0.02 0.02 0.02 0.02 0.02 0.01 0.01 0.01 0.01 0.01 0.02 0.02 0.03 0.02 0.03 0.03 0.04 0.06 0.11 0.16 0.22 0.27 0.37 0.49 0.54 0.55 0.58 0.63 0.65 0.69 0.73 0.71 0.73 0.84 0.87 0.85 0.85 0.87
0.01 0.01 0.03 0.06 0.04 0.03 0.03 0.02 0.01 0.01 0.00 0.00 0.01 0.01 0.01 0.02 0.02 0.02 0.02 0.02 0.03 0.04 0.05 0.08 0.13 0.21 0.25 0.29 0.37 0.45 0.53 0.60 0.68 0.70 0.68 0.72 0.81 0.88 0.89 0.89 0.88 0.85 0.87 0.81
0.02 0.03 0.06 0.07 0.06 0.05 0.04 0.02 0.01 0.01 0.01 0.01 0.01 0.01 0.01 0.02 0.02 0.02 0.03 0.03 0.04 0.06 0.08 0.12 0.17 0.23 0.27 0.30 0.38 0.47 0.58 0.68 0.80 0.80 0.76 0.75 0.77 0.84 0.87 0.87 0.75 0.63 0.59 0.52